Year,Month,Day,Hour,Minute,Value (Times are PST for temperature in C)
2011,08,18,00,00,15.00
2011,08,18,00,01,15.00
2011,08,18,00,02,15.00
2011,08,18,00,03,15.00
2011,08,18,00,04,15.00
2011,08,18,00,05,14.90
2011,08,18,00,06,14.90
2011,08,18,00,07,14.90
2011,08,18,00,08,14.90
2011,08,18,00,09,14.90
2011,08,18,00,10,14.90
2011,08,18,00,11,14.80
2011,08,18,00,12,14.80
2011,08,18,00,13,14.80
2011,08,18,00,14,14.80
2011,08,18,00,15,14.80
2011,08,18,00,16,14.80
2011,08,18,00,17,14.80
2011,08,18,00,18,14.80
2011,08,18,00,19,14.80
2011,08,18,00,20,14.80
2011,08,18,00,21,14.80
2011,08,18,00,22,14.80
2011,08,18,00,23,14.80
2011,08,18,00,24,14.80
2011,08,18,00,25,14.80
2011,08,18,00,26,14.80
2011,08,18,00,27,14.80
2011,08,18,00,28,14.80
2011,08,18,00,29,14.80
2011,08,18,00,30,14.80
2011,08,18,00,31,14.80
2011,08,18,00,32,14.80
2011,08,18,00,33,14.80
2011,08,18,00,34,14.80
2011,08,18,00,35,14.80
2011,08,18,00,36,14.80
2011,08,18,00,37,14.80
2011,08,18,00,38,14.70
2011,08,18,00,39,14.70
2011,08,18,00,40,14.70
2011,08,18,00,41,14.70
2011,08,18,00,42,14.60
2011,08,18,00,43,14.60
2011,08,18,00,44,14.60
2011,08,18,00,45,14.60
2011,08,18,00,46,14.60
2011,08,18,00,47,14.60
2011,08,18,00,48,14.60
2011,08,18,00,49,14.60
2011,08,18,00,50,14.60
2011,08,18,00,51,14.60
2011,08,18,00,52,14.60
2011,08,18,00,53,14.50
2011,08,18,00,54,14.50
2011,08,18,00,55,14.50
2011,08,18,00,56,14.50
2011,08,18,00,57,14.50
2011,08,18,00,58,14.50
2011,08,18,00,59,14.40
2011,08,18,01,00,14.40
2011,08,18,01,01,14.40
2011,08,18,01,02,14.40
2011,08,18,01,03,14.40
2011,08,18,01,04,14.30
2011,08,18,01,05,14.30
2011,08,18,01,06,14.30
2011,08,18,01,07,14.20
2011,08,18,01,08,14.20
2011,08,18,01,09,14.20
2011,08,18,01,10,14.20
2011,08,18,01,11,14.20
2011,08,18,01,12,14.20
2011,08,18,01,13,14.20
2011,08,18,01,14,14.20
2011,08,18,01,15,14.20
2011,08,18,01,16,14.20
2011,08,18,01,17,14.20
2011,08,18,01,18,14.20
2011,08,18,01,19,14.20
2011,08,18,01,20,14.20
2011,08,18,01,21,14.20
2011,08,18,01,22,14.20
2011,08,18,01,23,14.20
2011,08,18,01,24,14.20
2011,08,18,01,25,14.20
2011,08,18,01,26,14.20
2011,08,18,01,27,14.20
2011,08,18,01,28,14.20
2011,08,18,01,29,14.20
2011,08,18,01,30,14.20
2011,08,18,01,31,14.20
2011,08,18,01,32,14.20
2011,08,18,01,33,14.20
2011,08,18,01,34,14.20
2011,08,18,01,35,14.20
2011,08,18,01,36,14.20
2011,08,18,01,37,14.20
2011,08,18,01,38,14.10
2011,08,18,01,39,14.10
2011,08,18,01,40,14.10
2011,08,18,01,41,14.10
2011,08,18,01,42,14.10
2011,08,18,01,43,14.10
2011,08,18,01,44,14.10
2011,08,18,01,45,14.00
2011,08,18,01,46,14.00
2011,08,18,01,47,14.00
2011,08,18,01,48,14.00
2011,08,18,01,49,14.00
2011,08,18,01,50,14.00
2011,08,18,01,51,14.00
2011,08,18,01,52,14.00
2011,08,18,01,53,14.00
2011,08,18,01,54,13.90
2011,08,18,01,55,13.90
2011,08,18,01,56,13.90
2011,08,18,01,57,13.90
2011,08,18,01,58,13.90
2011,08,18,01,59,13.90
2011,08,18,02,00,13.90
2011,08,18,02,01,13.90
2011,08,18,02,02,13.90
2011,08,18,02,03,13.90
2011,08,18,02,04,13.90
2011,08,18,02,05,13.80
2011,08,18,02,06,13.80
2011,08,18,02,07,13.80
2011,08,18,02,08,13.80
2011,08,18,02,09,13.80
2011,08,18,02,10,13.80
2011,08,18,02,11,13.80
2011,08,18,02,12,13.80
2011,08,18,02,13,13.80
2011,08,18,02,14,13.80
2011,08,18,02,15,13.80
2011,08,18,02,16,13.80
2011,08,18,02,17,13.80
2011,08,18,02,18,13.80
2011,08,18,02,19,13.80
2011,08,18,02,20,13.80
2011,08,18,02,21,13.80
2011,08,18,02,22,13.80
2011,08,18,02,23,13.80
2011,08,18,02,24,13.80
2011,08,18,02,25,13.80
2011,08,18,02,26,13.80
2011,08,18,02,27,13.80
2011,08,18,02,28,13.70
2011,08,18,02,29,13.80
2011,08,18,02,30,13.70
2011,08,18,02,31,13.70
2011,08,18,02,32,13.70
2011,08,18,02,33,13.70
2011,08,18,02,34,13.70
2011,08,18,02,35,13.70
2011,08,18,02,36,13.70
2011,08,18,02,37,13.70
2011,08,18,02,38,13.70
2011,08,18,02,39,13.70
2011,08,18,02,40,13.70
2011,08,18,02,41,13.70
2011,08,18,02,42,13.70
2011,08,18,02,43,13.70
2011,08,18,02,44,13.70
2011,08,18,02,45,13.70
2011,08,18,02,46,13.70
2011,08,18,02,47,13.70
2011,08,18,02,48,13.70
2011,08,18,02,49,13.70
2011,08,18,02,50,13.70
2011,08,18,02,51,13.70
2011,08,18,02,52,13.70
2011,08,18,02,53,13.70
2011,08,18,02,54,13.70
2011,08,18,02,55,13.70
2011,08,18,02,56,13.70
2011,08,18,02,57,13.70
2011,08,18,02,58,13.70
2011,08,18,02,59,13.70
2011,08,18,03,00,13.70
2011,08,18,03,01,13.70
2011,08,18,03,02,13.70
2011,08,18,03,03,13.70
2011,08,18,03,04,13.60
2011,08,18,03,05,13.60
2011,08,18,03,06,13.60
2011,08,18,03,07,13.60
2011,08,18,03,08,13.60
2011,08,18,03,09,13.60
2011,08,18,03,10,13.60
2011,08,18,03,11,13.60
2011,08,18,03,12,13.60
2011,08,18,03,13,13.60
2011,08,18,03,14,13.60
2011,08,18,03,15,13.60
2011,08,18,03,16,13.60
2011,08,18,03,17,13.60
2011,08,18,03,18,13.60
2011,08,18,03,19,13.60
2011,08,18,03,20,13.60
2011,08,18,03,21,13.60
2011,08,18,03,22,13.50
2011,08,18,03,23,13.50
2011,08,18,03,24,13.50
2011,08,18,03,25,13.50
2011,08,18,03,26,13.50
2011,08,18,03,27,13.50
2011,08,18,03,28,13.50
2011,08,18,03,29,13.50
2011,08,18,03,30,13.50
2011,08,18,03,31,13.50
2011,08,18,03,32,13.50
2011,08,18,03,33,13.50
2011,08,18,03,34,13.50
2011,08,18,03,35,13.50
2011,08,18,03,36,13.50
2011,08,18,03,37,13.50
2011,08,18,03,38,13.50
2011,08,18,03,39,13.40
2011,08,18,03,40,13.40
2011,08,18,03,41,13.40
2011,08,18,03,42,13.40
2011,08,18,03,43,13.40
2011,08,18,03,44,13.30
2011,08,18,03,45,13.30
2011,08,18,03,46,13.30
2011,08,18,03,47,13.30
2011,08,18,03,48,13.30
2011,08,18,03,49,13.30
2011,08,18,03,50,13.20
2011,08,18,03,51,13.20
2011,08,18,03,52,13.20
2011,08,18,03,53,13.20
2011,08,18,03,54,13.20
2011,08,18,03,55,13.20
2011,08,18,03,56,13.10
2011,08,18,03,57,13.10
2011,08,18,03,58,13.10
2011,08,18,03,59,13.10
2011,08,18,04,00,13.10
2011,08,18,04,01,13.10
2011,08,18,04,02,13.10
2011,08,18,04,03,13.10
2011,08,18,04,04,13.00
2011,08,18,04,05,13.00
2011,08,18,04,06,13.00
2011,08,18,04,07,13.00
2011,08,18,04,08,12.90
2011,08,18,04,09,12.90
2011,08,18,04,10,12.80
2011,08,18,04,11,12.80
2011,08,18,04,12,12.80
2011,08,18,04,13,12.80
2011,08,18,04,14,12.70
2011,08,18,04,15,12.70
2011,08,18,04,16,12.70
2011,08,18,04,17,12.60
2011,08,18,04,18,12.60
2011,08,18,04,19,12.60
2011,08,18,04,20,12.50
2011,08,18,04,21,12.50
2011,08,18,04,22,12.40
2011,08,18,04,23,12.40
2011,08,18,04,24,12.40
2011,08,18,04,25,12.40
2011,08,18,04,26,12.40
2011,08,18,04,27,12.40
2011,08,18,04,28,12.40
2011,08,18,04,29,12.40
2011,08,18,04,30,12.40
2011,08,18,04,31,12.40
2011,08,18,04,32,12.40
2011,08,18,04,33,12.30
2011,08,18,04,34,12.30
2011,08,18,04,35,12.30
2011,08,18,04,36,12.30
2011,08,18,04,37,12.30
2011,08,18,04,38,12.30
2011,08,18,04,39,12.30
2011,08,18,04,40,12.30
2011,08,18,04,41,12.30
2011,08,18,04,42,12.30
2011,08,18,04,43,12.30
2011,08,18,04,44,12.30
2011,08,18,04,45,12.30
2011,08,18,04,46,12.20
2011,08,18,04,47,12.20
2011,08,18,04,48,12.20
2011,08,18,04,49,12.20
2011,08,18,04,50,12.10
2011,08,18,04,51,12.10
2011,08,18,04,52,12.00
2011,08,18,04,53,12.00
2011,08,18,04,54,12.00
2011,08,18,04,55,12.00
2011,08,18,04,56,12.00
2011,08,18,04,57,11.90
2011,08,18,04,58,11.90
2011,08,18,04,59,11.90
2011,08,18,05,00,11.90
2011,08,18,05,01,11.80
2011,08,18,05,02,11.80
2011,08,18,05,03,11.80
2011,08,18,05,04,11.80
2011,08,18,05,05,11.80
2011,08,18,05,06,11.80
2011,08,18,05,07,11.80
2011,08,18,05,08,11.80
2011,08,18,05,09,11.80
2011,08,18,05,10,11.80
2011,08,18,05,11,11.80
2011,08,18,05,12,11.80
2011,08,18,05,13,11.80
2011,08,18,05,14,11.80
2011,08,18,05,15,11.80
2011,08,18,05,16,11.80
2011,08,18,05,17,11.80
2011,08,18,05,18,11.80
2011,08,18,05,19,11.80
2011,08,18,05,20,11.80
2011,08,18,05,21,11.80
2011,08,18,05,22,11.80
2011,08,18,05,23,11.80
2011,08,18,05,24,11.80
2011,08,18,05,25,11.80
2011,08,18,05,26,11.80
2011,08,18,05,27,11.80
2011,08,18,05,28,11.70
2011,08,18,05,29,11.70
2011,08,18,05,30,11.70
2011,08,18,05,31,11.70
2011,08,18,05,32,11.70
2011,08,18,05,33,11.60
2011,08,18,05,34,11.60
2011,08,18,05,35,11.60
2011,08,18,05,36,11.60
2011,08,18,05,37,11.60
2011,08,18,05,38,11.60
2011,08,18,05,39,11.60
2011,08,18,05,40,11.60
2011,08,18,05,41,11.60
2011,08,18,05,42,11.60
2011,08,18,05,43,11.60
2011,08,18,05,44,11.60
2011,08,18,05,45,11.60
2011,08,18,05,46,11.60
2011,08,18,05,47,11.60
2011,08,18,05,48,11.60
2011,08,18,05,49,11.60
2011,08,18,05,50,11.60
2011,08,18,05,51,11.60
2011,08,18,05,52,11.60
2011,08,18,05,53,11.50
2011,08,18,05,54,11.40
2011,08,18,05,55,11.40
2011,08,18,05,56,11.40
2011,08,18,05,57,11.40
2011,08,18,05,58,11.30
2011,08,18,05,59,11.30
2011,08,18,06,00,11.30
2011,08,18,06,01,11.30
2011,08,18,06,02,11.30
2011,08,18,06,03,11.20
2011,08,18,06,04,11.20
2011,08,18,06,05,11.20
2011,08,18,06,06,11.20
2011,08,18,06,07,11.20
2011,08,18,06,08,11.20
2011,08,18,06,09,11.20
2011,08,18,06,10,11.20
2011,08,18,06,11,11.20
2011,08,18,06,12,11.20
2011,08,18,06,13,11.20
2011,08,18,06,14,11.20
2011,08,18,06,15,11.20
2011,08,18,06,16,11.20
2011,08,18,06,17,11.20
2011,08,18,06,18,11.20
2011,08,18,06,19,11.20
2011,08,18,06,20,11.20
2011,08,18,06,21,11.20
2011,08,18,06,22,11.20
2011,08,18,06,23,11.20
2011,08,18,06,24,11.20
2011,08,18,06,25,11.20
2011,08,18,06,26,11.20
2011,08,18,06,27,11.20
2011,08,18,06,28,11.20
2011,08,18,06,29,11.20
2011,08,18,06,30,11.20
2011,08,18,06,31,11.20
2011,08,18,06,32,11.20
2011,08,18,06,33,11.20
2011,08,18,06,34,11.20
2011,08,18,06,35,11.20
2011,08,18,06,36,11.20
2011,08,18,06,37,11.20
2011,08,18,06,38,11.20
2011,08,18,06,39,11.20
2011,08,18,06,40,11.20
2011,08,18,06,41,11.30
2011,08,18,06,42,11.30
2011,08,18,06,43,11.30
2011,08,18,06,44,11.30
2011,08,18,06,45,11.30
2011,08,18,06,46,11.30
2011,08,18,06,47,11.30
2011,08,18,06,48,11.30
2011,08,18,06,49,11.30
2011,08,18,06,50,11.40
2011,08,18,06,51,11.40
2011,08,18,06,52,11.40
2011,08,18,06,53,11.40
2011,08,18,06,54,11.40
2011,08,18,06,55,11.40
2011,08,18,06,56,11.40
2011,08,18,06,57,11.40
2011,08,18,06,58,11.40
2011,08,18,06,59,11.50
2011,08,18,07,00,11.60
2011,08,18,07,01,11.60
2011,08,18,07,02,11.60
2011,08,18,07,03,11.60
2011,08,18,07,04,11.60
2011,08,18,07,05,11.60
2011,08,18,07,06,11.60
2011,08,18,07,07,11.60
2011,08,18,07,08,11.60
2011,08,18,07,09,11.70
2011,08,18,07,10,11.70
2011,08,18,07,11,11.80
2011,08,18,07,12,11.80
2011,08,18,07,13,11.80
2011,08,18,07,14,11.80
2011,08,18,07,15,11.90
2011,08,18,07,16,11.90
2011,08,18,07,17,11.90
2011,08,18,07,18,11.90
2011,08,18,07,19,12.00
2011,08,18,07,20,12.00
2011,08,18,07,21,12.00
2011,08,18,07,22,12.00
2011,08,18,07,23,12.10
2011,08,18,07,24,12.10
2011,08,18,07,25,12.10
2011,08,18,07,26,12.20
2011,08,18,07,27,12.20
2011,08,18,07,28,12.30
2011,08,18,07,29,12.30
2011,08,18,07,30,12.30
2011,08,18,07,31,12.30
2011,08,18,07,32,12.40
2011,08,18,07,33,12.40
2011,08,18,07,34,12.40
2011,08,18,07,35,12.50
2011,08,18,07,36,12.50
2011,08,18,07,37,12.50
2011,08,18,07,38,12.50
2011,08,18,07,39,12.60
2011,08,18,07,40,12.60
2011,08,18,07,41,12.60
2011,08,18,07,42,12.70
2011,08,18,07,43,12.70
2011,08,18,07,44,12.80
2011,08,18,07,45,12.80
2011,08,18,07,46,12.80
2011,08,18,07,47,12.90
2011,08,18,07,48,13.00
2011,08,18,07,49,13.00
2011,08,18,07,50,13.00
2011,08,18,07,51,13.10
2011,08,18,07,52,13.10
2011,08,18,07,53,13.10
2011,08,18,07,54,13.20
2011,08,18,07,55,13.20
2011,08,18,07,56,13.20
2011,08,18,07,57,13.20
2011,08,18,07,58,13.20
2011,08,18,07,59,13.30
2011,08,18,08,00,13.30
2011,08,18,08,01,13.30
2011,08,18,08,02,13.30
2011,08,18,08,03,13.30
2011,08,18,08,04,13.30
2011,08,18,08,05,13.30
2011,08,18,08,06,13.30
2011,08,18,08,07,13.30
2011,08,18,08,08,13.30
2011,08,18,08,09,13.40
2011,08,18,08,10,13.40
2011,08,18,08,11,13.50
2011,08,18,08,12,13.50
2011,08,18,08,13,13.50
2011,08,18,08,14,13.50
2011,08,18,08,15,13.60
2011,08,18,08,16,13.60
2011,08,18,08,17,13.60
2011,08,18,08,18,13.60
2011,08,18,08,19,13.60
2011,08,18,08,20,13.70
2011,08,18,08,21,13.70
2011,08,18,08,22,13.70
2011,08,18,08,23,13.70
2011,08,18,08,24,13.70
2011,08,18,08,25,13.70
2011,08,18,08,26,13.80
2011,08,18,08,27,13.80
2011,08,18,08,28,13.90
2011,08,18,08,29,13.90
2011,08,18,08,30,14.00
2011,08,18,08,31,14.00
2011,08,18,08,32,14.00
2011,08,18,08,33,14.10
2011,08,18,08,34,14.20
2011,08,18,08,35,14.20
2011,08,18,08,36,14.30
2011,08,18,08,37,14.30
2011,08,18,08,38,14.40
2011,08,18,08,39,14.40
2011,08,18,08,40,14.50
2011,08,18,08,41,14.50
2011,08,18,08,42,14.50
2011,08,18,08,43,14.60
2011,08,18,08,44,14.60
2011,08,18,08,45,14.70
2011,08,18,08,46,14.70
2011,08,18,08,47,14.80
2011,08,18,08,48,14.80
2011,08,18,08,49,14.80
2011,08,18,08,50,14.90
2011,08,18,08,51,15.00
2011,08,18,08,52,15.10
2011,08,18,08,53,15.20
2011,08,18,08,54,15.20
2011,08,18,08,55,15.30
2011,08,18,08,56,15.40
2011,08,18,08,57,15.50
2011,08,18,08,58,15.60
2011,08,18,08,59,15.70
2011,08,18,09,00,15.80
2011,08,18,09,01,15.90
2011,08,18,09,02,16.00
2011,08,18,09,03,16.10
2011,08,18,09,04,16.20
2011,08,18,09,05,16.30
2011,08,18,09,06,16.40
2011,08,18,09,07,16.40
2011,08,18,09,08,16.50
2011,08,18,09,09,16.60
2011,08,18,09,10,16.70
2011,08,18,09,11,16.70
2011,08,18,09,12,16.70
2011,08,18,09,13,16.80
2011,08,18,09,14,16.80
2011,08,18,09,15,16.90
2011,08,18,09,16,16.90
2011,08,18,09,17,16.90
2011,08,18,09,18,17.00
2011,08,18,09,19,17.00
2011,08,18,09,20,17.10
2011,08,18,09,21,17.20
2011,08,18,09,22,17.20
2011,08,18,09,23,17.30
2011,08,18,09,24,17.30
2011,08,18,09,25,17.30
2011,08,18,09,26,17.30
2011,08,18,09,27,17.30
2011,08,18,09,28,17.30
2011,08,18,09,29,17.30
2011,08,18,09,30,17.30
2011,08,18,09,31,17.40
2011,08,18,09,32,17.40
2011,08,18,09,33,17.50
2011,08,18,09,34,17.50
2011,08,18,09,35,17.60
2011,08,18,09,36,17.60
2011,08,18,09,37,17.70
2011,08,18,09,38,17.70
2011,08,18,09,39,17.70
2011,08,18,09,40,17.70
2011,08,18,09,41,17.70
2011,08,18,09,42,17.70
2011,08,18,09,43,17.70
2011,08,18,09,44,17.70
2011,08,18,09,45,17.70
2011,08,18,09,46,17.70
2011,08,18,09,47,17.70
2011,08,18,09,48,17.70
2011,08,18,09,49,17.70
2011,08,18,09,50,17.70
2011,08,18,09,51,17.80
2011,08,18,09,52,17.80
2011,08,18,09,53,17.80
2011,08,18,09,54,17.80
2011,08,18,09,55,17.80
2011,08,18,09,56,17.80
2011,08,18,09,57,17.80
2011,08,18,09,58,17.80
2011,08,18,09,59,17.90
2011,08,18,10,00,17.90
2011,08,18,10,01,17.90
2011,08,18,10,02,18.00
2011,08,18,10,03,18.10
2011,08,18,10,04,18.10
2011,08,18,10,05,18.20
2011,08,18,10,06,18.20
2011,08,18,10,07,18.20
2011,08,18,10,08,18.30
2011,08,18,10,09,18.30
2011,08,18,10,10,18.30
2011,08,18,10,11,18.30
2011,08,18,10,12,18.30
2011,08,18,10,13,18.20
2011,08,18,10,14,18.10
2011,08,18,10,15,18.00
2011,08,18,10,16,17.90
2011,08,18,10,17,17.80
2011,08,18,10,18,17.70
2011,08,18,10,19,17.70
2011,08,18,10,20,17.60
2011,08,18,10,21,17.50
2011,08,18,10,22,17.40
2011,08,18,10,23,17.40
2011,08,18,10,24,17.30
2011,08,18,10,25,17.30
2011,08,18,10,26,17.30
2011,08,18,10,27,17.30
2011,08,18,10,28,17.40
2011,08,18,10,29,17.50
2011,08,18,10,30,17.60
2011,08,18,10,31,17.70
2011,08,18,10,32,17.80
2011,08,18,10,33,17.80
2011,08,18,10,34,17.90
2011,08,18,10,35,17.90
2011,08,18,10,36,17.90
2011,08,18,10,37,17.90
2011,08,18,10,38,17.90
2011,08,18,10,39,17.90
2011,08,18,10,40,17.90
2011,08,18,10,41,17.90
2011,08,18,10,42,17.90
2011,08,18,10,43,17.90
2011,08,18,10,44,17.90
2011,08,18,10,45,17.90
2011,08,18,10,46,17.80
2011,08,18,10,47,17.80
2011,08,18,10,48,17.80
2011,08,18,10,49,17.90
2011,08,18,10,50,17.90
2011,08,18,10,51,17.90
2011,08,18,10,52,18.00
2011,08,18,10,53,18.10
2011,08,18,10,54,18.10
2011,08,18,10,55,18.20
2011,08,18,10,56,18.40
2011,08,18,10,57,18.40
2011,08,18,10,58,18.40
2011,08,18,10,59,18.30
2011,08,18,11,00,18.20
2011,08,18,11,01,18.20
2011,08,18,11,02,18.30
2011,08,18,11,03,18.30
2011,08,18,11,04,18.30
2011,08,18,11,05,18.20
2011,08,18,11,06,18.20
2011,08,18,11,07,18.20
2011,08,18,11,08,18.20
2011,08,18,11,09,18.20
2011,08,18,11,10,18.20
2011,08,18,11,11,18.20
2011,08,18,11,12,18.10
2011,08,18,11,13,18.10
2011,08,18,11,14,18.10
2011,08,18,11,15,18.10
2011,08,18,11,16,18.10
2011,08,18,11,17,18.10
2011,08,18,11,18,18.10
2011,08,18,11,19,18.10
2011,08,18,11,20,18.10
2011,08,18,11,21,18.20
2011,08,18,11,22,18.20
2011,08,18,11,23,18.30
2011,08,18,11,24,18.40
2011,08,18,11,25,18.50
2011,08,18,11,26,18.50
2011,08,18,11,27,18.50
2011,08,18,11,28,18.60
2011,08,18,11,29,18.60
2011,08,18,11,30,18.60
2011,08,18,11,31,18.50
2011,08,18,11,32,18.50
2011,08,18,11,33,18.40
2011,08,18,11,34,18.50
2011,08,18,11,35,18.50
2011,08,18,11,36,18.50
2011,08,18,11,37,18.60
2011,08,18,11,38,18.70
2011,08,18,11,39,18.80
2011,08,18,11,40,18.90
2011,08,18,11,41,18.90
2011,08,18,11,42,18.90
2011,08,18,11,43,18.80
2011,08,18,11,44,18.70
2011,08,18,11,45,18.70
2011,08,18,11,46,18.70
2011,08,18,11,47,18.70
2011,08,18,11,48,18.70
2011,08,18,11,49,18.80
2011,08,18,11,50,18.80
2011,08,18,11,51,18.80
2011,08,18,11,52,18.80
2011,08,18,11,53,18.80
2011,08,18,11,54,18.80
2011,08,18,11,55,18.80
2011,08,18,11,56,18.80
2011,08,18,11,57,18.90
2011,08,18,11,58,18.90
2011,08,18,11,59,18.90
2011,08,18,12,00,18.90
2011,08,18,12,01,18.90
2011,08,18,12,02,18.90
2011,08,18,12,03,18.90
2011,08,18,12,04,18.90
2011,08,18,12,05,18.90
2011,08,18,12,06,18.90
2011,08,18,12,07,18.80
2011,08,18,12,08,18.90
2011,08,18,12,09,18.90
2011,08,18,12,10,19.00
2011,08,18,12,11,19.10
2011,08,18,12,12,19.10
2011,08,18,12,13,19.10
2011,08,18,12,14,19.10
2011,08,18,12,15,19.10
2011,08,18,12,16,19.00
2011,08,18,12,17,18.90
2011,08,18,12,18,18.90
2011,08,18,12,19,18.90
2011,08,18,12,20,18.90
2011,08,18,12,21,18.90
2011,08,18,12,22,18.90
2011,08,18,12,23,18.90
2011,08,18,12,24,18.90
2011,08,18,12,25,18.90
2011,08,18,12,26,18.90
2011,08,18,12,27,18.90
2011,08,18,12,28,18.90
2011,08,18,12,29,19.00
2011,08,18,12,30,19.10
2011,08,18,12,31,19.10
2011,08,18,12,32,19.20
2011,08,18,12,33,19.40
2011,08,18,12,34,19.50
2011,08,18,12,35,19.60
2011,08,18,12,36,19.60
2011,08,18,12,37,19.50
2011,08,18,12,38,19.50
2011,08,18,12,39,19.60
2011,08,18,12,40,19.60
2011,08,18,12,41,19.50
2011,08,18,12,42,19.40
2011,08,18,12,43,19.40
2011,08,18,12,44,19.50
2011,08,18,12,45,19.60
2011,08,18,12,46,19.60
2011,08,18,12,47,19.70
2011,08,18,12,48,19.80
2011,08,18,12,49,19.90
2011,08,18,12,50,19.90
2011,08,18,12,51,19.90
2011,08,18,12,52,19.80
2011,08,18,12,53,19.70
2011,08,18,12,54,19.60
2011,08,18,12,55,19.60
2011,08,18,12,56,19.50
2011,08,18,12,57,19.40
2011,08,18,12,58,19.20
2011,08,18,12,59,19.10
2011,08,18,13,00,19.20
2011,08,18,13,01,19.30
2011,08,18,13,02,19.40
2011,08,18,13,03,19.60
2011,08,18,13,04,19.80
2011,08,18,13,05,19.90
2011,08,18,13,06,19.90
2011,08,18,13,07,19.90
2011,08,18,13,08,19.90
2011,08,18,13,09,19.80
2011,08,18,13,10,19.70
2011,08,18,13,11,19.70
2011,08,18,13,12,19.80
2011,08,18,13,13,19.80
2011,08,18,13,14,19.90
2011,08,18,13,15,19.90
2011,08,18,13,16,19.80
2011,08,18,13,17,19.70
2011,08,18,13,18,19.60
2011,08,18,13,19,19.60
2011,08,18,13,20,19.60
2011,08,18,13,21,19.50
2011,08,18,13,22,19.50
2011,08,18,13,23,19.50
2011,08,18,13,24,19.40
2011,08,18,13,25,19.30
2011,08,18,13,26,19.20
2011,08,18,13,27,19.10
2011,08,18,13,28,19.10
2011,08,18,13,29,19.10
2011,08,18,13,30,19.10
2011,08,18,13,31,19.20
2011,08,18,13,32,19.20
2011,08,18,13,33,19.30
2011,08,18,13,34,19.40
2011,08,18,13,35,19.50
2011,08,18,13,36,19.50
2011,08,18,13,37,19.60
2011,08,18,13,38,19.60
2011,08,18,13,39,19.50
2011,08,18,13,40,19.30
2011,08,18,13,41,19.20
2011,08,18,13,42,19.20
2011,08,18,13,43,19.30
2011,08,18,13,44,19.50
2011,08,18,13,45,19.70
2011,08,18,13,46,19.80
2011,08,18,13,47,20.00
2011,08,18,13,48,20.10
2011,08,18,13,49,20.20
2011,08,18,13,50,20.30
2011,08,18,13,51,20.30
2011,08,18,13,52,20.40
2011,08,18,13,53,20.50
2011,08,18,13,54,20.50
2011,08,18,13,55,20.40
2011,08,18,13,56,20.20
2011,08,18,13,57,20.30
2011,08,18,13,58,20.30
2011,08,18,13,59,20.40
2011,08,18,14,00,20.50
2011,08,18,14,01,20.60
2011,08,18,14,02,20.70
2011,08,18,14,03,20.70
2011,08,18,14,04,20.70
2011,08,18,14,05,20.80
2011,08,18,14,06,20.90
2011,08,18,14,07,21.00
2011,08,18,14,08,20.80
2011,08,18,14,09,20.80
2011,08,18,14,10,20.70
2011,08,18,14,11,20.80
2011,08,18,14,12,20.80
2011,08,18,14,13,20.70
2011,08,18,14,14,20.60
2011,08,18,14,15,20.60
2011,08,18,14,16,20.70
2011,08,18,14,17,20.70
2011,08,18,14,18,20.70
2011,08,18,14,19,20.70
2011,08,18,14,20,20.60
2011,08,18,14,21,20.30
2011,08,18,14,22,20.20
2011,08,18,14,23,20.10
2011,08,18,14,24,20.00
2011,08,18,14,25,20.00
2011,08,18,14,26,20.10
2011,08,18,14,27,20.10
2011,08,18,14,28,20.10
2011,08,18,14,29,20.20
2011,08,18,14,30,20.30
2011,08,18,14,31,20.30
2011,08,18,14,32,20.20
2011,08,18,14,33,20.20
2011,08,18,14,34,20.10
2011,08,18,14,35,20.00
2011,08,18,14,36,19.90
2011,08,18,14,37,19.90
2011,08,18,14,38,19.90
2011,08,18,14,39,20.00
2011,08,18,14,40,20.10
2011,08,18,14,41,20.10
2011,08,18,14,42,20.10
2011,08,18,14,43,20.00
2011,08,18,14,44,19.90
2011,08,18,14,45,20.10
2011,08,18,14,46,20.10
2011,08,18,14,47,20.10
2011,08,18,14,48,20.10
2011,08,18,14,49,20.10
2011,08,18,14,50,20.10
2011,08,18,14,51,20.10
2011,08,18,14,52,20.10
2011,08,18,14,53,20.20
2011,08,18,14,54,20.30
2011,08,18,14,55,20.40
2011,08,18,14,56,20.60
2011,08,18,14,57,20.70
2011,08,18,14,58,20.70
2011,08,18,14,59,20.80
2011,08,18,15,00,20.80
2011,08,18,15,01,20.80
2011,08,18,15,02,20.70
2011,08,18,15,03,20.70
2011,08,18,15,04,20.70
2011,08,18,15,05,20.70
2011,08,18,15,06,20.50
2011,08,18,15,07,20.50
2011,08,18,15,08,20.50
2011,08,18,15,09,20.50
2011,08,18,15,10,20.60
2011,08,18,15,11,20.70
2011,08,18,15,12,20.70
2011,08,18,15,13,20.80
2011,08,18,15,14,20.90
2011,08,18,15,15,20.90
2011,08,18,15,16,20.90
2011,08,18,15,17,20.80
2011,08,18,15,18,20.70
2011,08,18,15,19,20.50
2011,08,18,15,20,20.20
2011,08,18,15,21,20.00
2011,08,18,15,22,19.90
2011,08,18,15,23,19.90
2011,08,18,15,24,19.80
2011,08,18,15,25,19.70
2011,08,18,15,26,19.70
2011,08,18,15,27,19.70
2011,08,18,15,28,19.80
2011,08,18,15,29,19.80
2011,08,18,15,30,19.70
2011,08,18,15,31,19.60
2011,08,18,15,32,19.50
2011,08,18,15,33,19.60
2011,08,18,15,34,19.60
2011,08,18,15,35,19.70
2011,08,18,15,36,19.80
2011,08,18,15,37,19.90
2011,08,18,15,38,20.00
2011,08,18,15,39,20.10
2011,08,18,15,40,20.20
2011,08,18,15,41,20.20
2011,08,18,15,42,20.20
2011,08,18,15,43,20.20
2011,08,18,15,44,20.20
2011,08,18,15,45,20.20
2011,08,18,15,46,20.20
2011,08,18,15,47,20.40
2011,08,18,15,48,20.40
2011,08,18,15,49,20.40
2011,08,18,15,50,20.50
2011,08,18,15,51,20.50
2011,08,18,15,52,20.70
2011,08,18,15,53,20.80
2011,08,18,15,54,20.90
2011,08,18,15,55,20.80
2011,08,18,15,56,20.70
2011,08,18,15,57,20.70
2011,08,18,15,58,20.70
2011,08,18,15,59,20.60
2011,08,18,16,00,20.50
2011,08,18,16,01,20.40
2011,08,18,16,02,20.30
2011,08,18,16,03,20.20
2011,08,18,16,04,20.20
2011,08,18,16,05,20.30
2011,08,18,16,06,20.40
2011,08,18,16,07,20.40
2011,08,18,16,08,20.40
2011,08,18,16,09,20.30
2011,08,18,16,10,20.20
2011,08,18,16,11,20.20
2011,08,18,16,12,20.10
2011,08,18,16,13,20.10
2011,08,18,16,14,20.10
2011,08,18,16,15,20.10
2011,08,18,16,16,20.10
2011,08,18,16,17,20.10
2011,08,18,16,18,19.90
2011,08,18,16,19,19.90
2011,08,18,16,20,19.80
2011,08,18,16,21,19.80
2011,08,18,16,22,19.80
2011,08,18,16,23,19.70
2011,08,18,16,24,19.70
2011,08,18,16,25,19.70
2011,08,18,16,26,19.70
2011,08,18,16,27,19.80
2011,08,18,16,28,19.90
2011,08,18,16,29,20.00
2011,08,18,16,30,20.10
2011,08,18,16,31,20.20
2011,08,18,16,32,20.20
2011,08,18,16,33,20.20
2011,08,18,16,34,20.20
2011,08,18,16,35,20.20
2011,08,18,16,36,20.20
2011,08,18,16,37,20.30
2011,08,18,16,38,20.40
2011,08,18,16,39,20.40
2011,08,18,16,40,20.30
2011,08,18,16,41,20.30
2011,08,18,16,42,20.10
2011,08,18,16,43,20.10
2011,08,18,16,44,20.00
2011,08,18,16,45,19.90
2011,08,18,16,46,19.80
2011,08,18,16,47,19.60
2011,08,18,16,48,19.60
2011,08,18,16,49,19.50
2011,08,18,16,50,19.40
2011,08,18,16,51,19.30
2011,08,18,16,52,19.30
2011,08,18,16,53,19.20
2011,08,18,16,54,19.20
2011,08,18,16,55,19.30
2011,08,18,16,56,19.30
2011,08,18,16,57,19.40
2011,08,18,16,58,19.50
2011,08,18,16,59,19.60
2011,08,18,17,00,19.70
2011,08,18,17,01,19.60
2011,08,18,17,02,19.70
2011,08,18,17,03,19.70
2011,08,18,17,04,19.70
2011,08,18,17,05,19.60
2011,08,18,17,06,19.50
2011,08,18,17,07,19.40
2011,08,18,17,08,19.30
2011,08,18,17,09,19.10
2011,08,18,17,10,19.10
2011,08,18,17,11,19.10
2011,08,18,17,12,19.20
2011,08,18,17,13,19.20
2011,08,18,17,14,19.20
2011,08,18,17,15,19.20
2011,08,18,17,16,19.10
2011,08,18,17,17,19.10
2011,08,18,17,18,19.10
2011,08,18,17,19,19.10